RH
6 6 6 5 5 5 5 5 5 4 4 4 4 5 5 5 6 6 6 6 7 7 7 7 7 7 7 7 8 8 8 9 9 9 9 10 10 11 11 11 12 12 12 12 12 13 13 13 14 14 15 15 16 16 16 16 17 17 18 18 18 18 18 18 18 18 19 19 19 18 18 18 18 18 18 19 19 19 19 19 18 18 19 18 19 19
6 6 6 6 6 6 6 6 6 5 5 6 6 6 7 7 7 7 8 8 8 8 9 9 9 10 10 10 11 11 11 12 12 12 12 12 13 13 13 13 13 13 13 13 14 14 14 14 15 15 16 16 16 16 16 17 17 17 18 18 17 18 18 17 17 18 19 19 19 19 19 19 19 19 20 22 22 22 21 21 20 20 21 21 21 21
7 7 7 7 7 7 7 7 7 7 7 8 8 9 9 9 10 10 10 10 11 11 11 12 11 12 13 13 13 13 13 13 13 13 13 12 12 12 12 12 12 12 12 12 12 13 13 13 14 15 15 15 15 15 16 16 16 16 15 15 15 15 16 16 17 18 19 19 19 20 20 20 20 21 23 24 24 23 22 22 23 24 25 25 25 24
8 8 8 8 9 8 9 9 10 10 11 11 12 12 13 12 13 13 12 13 13 12 12 11 10 10 12 12 13 13 13 12 11 11 11 10 10 10 11 11 11 11 11 11 11 12 12 13 14 15 15 15 15 15 16 16 15 14 14 13 13 15 16 17 19 21 22 23 23 24 24 24 24 25 26 26 24 24 25 25 26 27 28 30 30 30
11 11 11 11 12 12 12 13 13 13 13 14 14 13 14 14 13 12 11 11 11 10 10 9 8 9 11 11 12 14 14 13 12 10 10 10 10 11 11 11 12 12 13 14 15 16 17 18 18 19 18 18 18 18 18 18 17 16 16 15 16 17 19 21 24 26 27 28 28 28 29 28 28 28 28 28 28 29 30 31 31 30 31 33 35 36
13 13 12 12 13 13 13 13 13 13 12 13 14 13 12 12 12 11 10 9 10 10 11 11 11 10 12 14 14 15 16 16 15 14 14 15 15 16 16 17 18 19 21 22 23 24 24 24 24 25 25 25 25 25 24 23 23 23 22 22 23 24 26 28 31 33 33 32 32 32 32 33 33 34 34 34 35 36 37 36 36 36 36 39 41 42
12 11 11 11 11 10 10 11 11 11 11 11 11 11 12 12 12 13 13 13 14 15 16 18 16 13 15 19 21 20 20 21 21 21 22 22 21 21 22 23 24 25 25 26 26 26 27 28 30 29 29 30 30 29 29 29 29 30 30 31 32 32 33 34 36 37 37 36 36 36 37 38 39 40 40 40 40 41 41 41 41 40 40 42 44 46
10 9 10 9 10 10 11 12 13 14 14 15 15 16 17 18 18 19 19 20 20 20 22 24 21 17 17 21 24 23 24 25 25 25 25 25 24 24 25 26 26 27 27 27 27 27 29 31 34 34 32 32 32 32 33 33 33 34 35 35 36 36 36 36 37 37 37 37 37 39 40 40 41 41 41 41 41 41 41 41 41 42 41 41 42 42
11 12 13 13 14 15 16 17 17 18 18 18 18 18 18 19 19 19 20 20 19 17 19 21 20 17 16 19 22 22 24 28 28 27 27 25 24 24 26 27 27 28 28 28 27 28 30 31 33 35 33 32 32 33 34 35 36 36 38 39 39 39 39 39 39 39 38 38 38 39 39 40 40 40 40 40 41 41 41 42 42 43 44 43 42 41
15 15 16 16 16 16 17 17 16 17 17 17 17 17 18 18 18 18 18 18 18 16 17 19 19 17 15 17 21 20 22 25 25 28 27 23 22 22 22 25 28 30 30 29 29 31 33 31 31 33 34 33 32 33 33 35 36 37 39 41 42 43 43 43 43 42 41 40 39 39 39 39 39 39 40 41 41 42 43 44 46 47 47 48 47 45
16 16 16 16 17 17 18 18 18 19 19 20 21 21 21 22 22 22 22 22 21 20 20 20 20 20 18 19 22 21 20 21 22 24 23 21 20 19 18 22 27 31 32 32 31 33 36 36 35 35 36 36 35 34 34 35 35 37 39 40 42 43 44 45 44 43 43 42 41 41 41 41 41 41 41 41 42 43 44 46 48 49 51 52 51 50
17 17 18 19 19 20 20 20 20 21 21 22 22 21 22 24 23 21 21 21 21 21 20 20 22 22 21 24 29 27 24 24 23 23 22 20 21 19 19 21 26 30 34 34 31 31 33 36 38 38 38 40 41 40 39 38 38 38 39 39 39 41 42 44 44 45 45 45 46 46 46 46 45 45 44 44 44 45 46 47 49 51 53 55 55 55
20 20 21 20 20 20 20 20 19 20 21 20 21 22 21 22 20 19 20 20 20 21 21 22 24 24 23 28 33 34 33 31 28 26 23 23 23 22 22 24 27 29 29 28 27 26 27 29 34 35 35 38 42 44 44 44 44 44 44 43 42 42 43 43 44 46 46 47 49 49 49 49 49 48 47 47 48 47 48 49 51 53 56 58 60 60
21 21 21 20 20 20 20 19 20 20 20 21 23 22 20 23 21 19 21 21 22 24 23 23 26 25 26 31 35 37 39 37 33 29 26 25 25 25 27 29 29 27 25 24 24 24 25 26 29 32 32 34 39 43 44 43 44 47 49 50 50 49 49 48 47 47 47 48 50 51 51 52 52 52 51 50 50 50 51 52 53 56 59 61 62 63
21 22 22 21 21 21 21 21 21 19 20 23 25 21 22 28 24 19 21 21 22 23 22 24 28 27 27 32 37 40 39 39 37 33 30 28 27 28 31 32 30 27 27 28 27 27 28 28 29 32 33 33 35 39 41 41 41 44 47 51 54 55 55 55 53 52 51 51 51 52 53 53 53 52 53 52 52 52 54 54 56 58 61 63 64 64
23 25 26 25 25 24 23 23 23 21 21 23 23 23 26 28 24 22 22 22 23 21 20 23 25 24 24 29 39 42 38 37 38 36 34 32 29 29 31 32 30 30 32 32 32 32 33 33 32 33 34 35 36 38 40 41 40 41 44 47 50 54 57 59 58 57 56 54 54 55 54 53 52 53 54 54 54 55 56 57 59 62 64 66 66 67
25 27 29 30 30 29 27 26 26 26 26 24 23 25 26 24 25 25 21 21 23 21 19 21 21 21 22 25 35 42 41 39 39 38 37 35 33 33 34 36 36 36 37 36 37 38 38 38 37 36 37 37 38 39 40 41 42 42 44 45 48 52 57 60 61 61 61 60 58 57 56 55 55 56 56 55 56 58 59 61 63 65 67 69 70 71
28 28 31 34 36 35 34 32 32 35 34 29 28 30 28 27 28 28 23 21 22 21 21 21 21 22 22 22 30 40 42 41 40 40 39 39 39 40 41 42 41 41 41 41 42 43 43 42 41 41 41 41 42 42 42 42 43 45 46 47 49 52 55 59 61 63 66 65 62 61 60 59 58 57 55 55 57 59 61 64 66 68 70 73 75 76
34 32 33 37 40 41 40 39 40 44 42 39 38 37 37 36 36 33 30 28 27 26 24 23 23 23 23 24 28 35 37 36 37 40 41 43 45 45 45 45 44 45 45 46 46 46 46 45 46 46 46 46 45 45 45 46 46 47 48 50 51 53 54 58 61 64 67 67 66 66 65 63 62 59 57 56 57 59 62 65 67 70 75 78 79 81
42 38 36 39 41 43 45 46 48 50 51 50 49 47 48 49 48 45 42 39 40 38 32 29 27 23 24 27 29 33 35 32 32 35 38 42 45 45 47 48 50 51 51 50 50 50 50 49 49 49 49 49 48 49 49 50 50 50 52 54 55 56 57 59 62 64 67 70 71 71 68 67 67 64 63 61 58 60 64 67 70 74 78 81 83 85
47 45 42 41 43 45 48 50 51 55 59 59 58 57 57 58 60 57 52 51 56 55 46 40 31 22 24 31 35 40 40 35 35 35 34 36 37 39 43 46 50 54 56 57 57 56 56 54 53 52 51 51 51 52 53 53 54 54 55 58 59 62 64 65 66 68 71 73 74 74 72 72 72 70 68 66 62 62 67 70 73 77 80 84 86 87
50 49 46 44 45 47 48 51 54 58 61 63 65 65 64 66 68 67 62 61 65 66 59 50 36 23 23 34 44 52 52 48 50 47 41 37 35 35 37 39 42 46 53 59 61 63 63 61 60 58 57 56 54 55 55 55 56 56 58 60 63 67 69 70 71 74 76 76 75 76 76 76 75 73 73 72 66 66 70 73 74 79 83 86 88 89
51 51 48 47 47 48 50 53 55 58 61 65 67 67 68 70 70 72 73 70 71 71 65 57 46 28 22 36 52 60 59 59 64 63 54 46 42 43 43 42 42 43 46 51 56 62 66 67 68 66 64 63 61 60 59 58 58 58 59 62 66 71 73 74 78 81 81 80 78 79 79 78 78 78 78 78 73 71 74 75 76 82 88 90 91 93
51 50 49 49 48 49 52 54 55 59 63 65 65 66 70 72 72 74 75 76 78 71 65 68 58 32 27 47 63 65 63 65 72 71 60 51 50 51 51 51 52 50 48 49 51 56 62 68 73 74 73 71 67 64 62 60 60 60 60 63 68 74 77 79 85 88 87 86 83 82 82 80 81 82 84 83 79 76 76 77 80 87 93 94 94 96
50 50 51 51 50 51 51 52 55 60 63 64 65 68 71 73 76 76 74 80 79 63 62 78 67 38 39 62 72 71 70 73 78 75 65 60 59 58 58 62 65 62 57 57 55 55 59 67 76 81 81 78 72 68 65 63 62 62 61 63 70 77 80 84 91 93 92 92 88 84 83 82 81 84 86 86 84 80 78 79 85 92 97 97 97 99
50 50 52 53 53 53 52 54 59 62 63 65 67 70 72 74 77 77 78 83 76 60 65 77 67 48 49 62 72 76 77 80 80 74 69 69 68 64 65 72 76 72 67 67 66 64 65 71 79 85 85 81 75 70 67 66 65 64 63 65 72 79 84 90 95 95 97 96 90 86 85 82 81 85 89 89 87 83 81 84 90 95 99 99 99 100
50 50 52 54 54 54 54 57 61 62 63 64 64 67 70 71 73 74 75 73 69 70 71 64 63 62 50 49 66 76 78 79 75 70 71 73 74 73 76 81 81 76 73 73 74 73 73 76 81 85 87 83 77 72 69 68 67 66 65 67 73 80 88 95 97 98 100 97 91 89 89 85 84 88 91 91 89 86 85 88 93 98 100 99 99 102
52 50 51 54 54 53 55 57 59 62 62 61 61 62 64 65 65 64 62 57 61 74 69 54 64 71 52 47 64 72 73 72 64 62 66 70 76 83 87 89 87 82 78 78 79 78 77 78 81 85 88 85 77 73 71 71 70 69 67 69 74 83 94 99 99 99 101 98 93 92 91 89 90 92 94 94 92 90 90 93 97 99 100 99 100 103
54 51 50 54 54 51 54 56 57 58 58 57 56 54 52 53 52 49 47 47 53 64 60 53 62 61 50 56 68 70 70 65 55 55 60 65 76 86 92 95 95 91 86 82 83 83 80 79 82 87 89 84 77 74 73 73 72 71 71 72 78 90 100 103 102 101 101 99 97 93 92 93 94 94 96 97 95 93 94 97 99 100 100 100 102 102
55 52 50 55 54 48 49 55 56 55 56 55 52 49 45 42 39 38 39 40 44 50 50 52 56 49 44 57 67 64 61 58 53 54 57 63 75 86 95 101 103 101 95 87 84 82 79 79 82 87 88 82 77 75 75 75 75 75 75 78 87 98 103 104 103 102 100 101 100 95 93 95 95 96 98 98 96 96 97 99 99 99 99 100 103 101
55 53 51 56 55 45 44 52 54 52 53 51 49 47 42 35 33 34 35 36 39 42 43 47 48 42 40 51 57 53 50 50 50 51 54 63 75 84 93 98 101 103 101 95 88 80 77 80 84 87 86 81 77 77 78 79 79 79 81 87 96 102 103 103 102 101 100 102 101 97 96 97 98 99 99 98 98 99 100 99 100 99 99 101 103 100
51 52 51 55 54 44 41 49 51 49 49 47 44 41 36 32 32 33 34 35 37 39 40 41 41 40 41 45 46 45 45 46 47 51 60 72 83 89 95 98 100 102 103 102 97 89 85 87 89 88 85 82 80 81 82 83 83 85 90 96 101 102 102 102 101 101 101 100 99 99 99 100 99 99 99 99 100 101 100 100 100 99 99 102 104 98
45 49 50 52 51 44 42 46 46 43 43 41 37 35 32 32 33 34 34 35 36 38 40 40 40 42 43 43 44 45 47 49 54 63 75 86 94 99 100 100 101 101 101 102 102 100 96 92 89 88 87 86 86 87 89 90 91 95 98 101 102 101 101 101 100 101 101 99 98 100 100 100 99 100 100 99 100 101 99 100 100 99 100 103 102 95
40 43 45 45 45 41 40 40 38 37 39 38 36 35 35 36 37 37 38 39 39 41 42 42 44 45 46 48 50 53 56 60 67 78 90 98 102 102 101 100 100 101 101 100 101 102 100 94 90 90 91 92 93 95 97 98 99 101 101 101 101 100 101 101 100 100 100 99 100 100 100 100 99 101 102 100 100 100 100 100 100 99 102 103 99 93
36 38 39 38 37 36 36 36 34 35 38 39 38 39 40 41 41 42 43 42 44 46 48 49 51 52 55 59 63 69 74 78 83 91 99 102 102 102 103 101 101 102 102 101 101 102 102 99 96 95 97 99 99 100 101 100 100 101 101 100 100 100 101 100 99 99 100 100 100 100 100 100 101 102 103 101 100 100 100 100 99 100 103 102 96 92
34 34 34 34 34 35 37 38 39 42 44 45 44 45 46 45 45 45 46 47 49 52 56 61 65 70 76 82 87 93 96 96 97 98 101 103 103 103 103 101 101 103 102 101 101 100 101 103 101 100 101 101 100 100 100 100 100 100 100 100 100 101 101 99 98 100 101 100 100 100 100 101 102 103 102 101 100 100 100 100 99 102 103 100 96 94
35 36 36 38 40 42 45 47 48 49 50 49 48 48 48 50 52 55 59 63 68 72 77 82 87 92 96 99 101 101 102 102 100 97 99 103 104 104 104 103 102 101 101 101 101 101 101 101 100 101 101 100 100 100 99 100 100 100 100 100 100 101 100 97 98 101 102 100 99 100 101 102 103 103 101 100 100 99 100 100 100 103 103 99 96 95
40 42 46 49 50 52 56 57 58 59 59 61 63 65 68 73 77 83 88 90 92 95 97 97 99 101 101 102 101 100 101 101 99 97 100 103 103 103 104 102 99 97 98 100 102 103 103 101 100 100 100 99 100 100 100 100 100 100 100 100 101 101 97 95 99 102 101 100 100 102 103 104 103 102 100 100 100 100 100 100 101 104 103 99 97 97
63 67 72 74 75 77 80 82 83 85 85 87 89 90 91 95 96 99 103 101 98 99 102 101 101 102 101 101 101 100 100 101 99 97 98 100 99 98 98 97 95 97 99 101 103 103 103 101 100 100 100 100 100 99 100 100 100 100 100 100 101 101 97 96 100 102 101 100 101 103 104 104 102 100 100 100 100 100 100 99 101 105 103 99 99 100
93 95 97 97 97 98 99 100 100 101 101 101 101 101 100 101 100 101 103 100 96 98 101 101 101 101 100 100 101 101 100 102 102 98 93 91 90 89 91 93 93 95 98 100 102 104 103 101 100 100 100 100 100 100 100 100 100 100 100 100 100 101 100 96 97 100 101 100 101 104 104 102 100 99 100 100 99 100 100 99 103 106 103 100 102 105
100 100 99 101 102 102 102 103 101 100 102 101 100 100 100 100 100 101 101 99 97 99 100 100 100 101 100 100 101 100 98 99 101 99 95 92 89 87 90 93 94 94 97 100 102 104 103 100 99 100 100 100 100 100 100 100 100 100 100 100 100 100 101 97 95 98 99 98 102 104 102 100 100 100 100 100 100 100 100 100 105 106 103 103 105 106
102 100 97 98 100 100 100 101 100 100 101 101 99 99 101 101 100 100 100 100 100 101 100 100 100 100 99 100 99 98 95 93 94 97 97 96 94 93 92 94 94 94 95 97 100 102 102 101 100 99 99 100 100 100 100 100 100 100 100 101 99 100 101 98 96 98 98 98 102 103 100 100 100 100 100 100 100 100 99 102 107 106 102 103 104 103
102 100 99 100 101 99 98 99 100 99 99 99 99 99 99 100 100 100 100 100 100 100 100 100 101 101 101 100 97 94 92 91 92 96 98 99 101 102 102 103 103 101 99 100 102 102 101 100 99 100 100 99 99 100 100 100 100 100 100 100 100 100 100 99 98 99 98 99 102 100 99 100 100 99 100 100 100 100 100 103 108 105 102 103 101 100
101 102 101 100 100 100 100 100 101 102 100 100 101 101 99 100 101 101 100 100 100 100 101 101 100 100 100 100 100 100 99 99 98 96 94 91 89 87 85 84 83 82 83 87 94 100 103 104 102 100 100 100 100 100 100 100 100 100 100 100 100 100 100 100 101 100 100 100 100 99 99 100 100 100 100 100 100 100 101 104 106 103 101 101 100 101
73 74 76 81 88 93 98 100 100 99 99 99 99 100 99 99 100 100 100 100 99 98 99 100 102 102 102 101 99 94 86 78 68 58 51 46 42 39 36 35 34 34 35 39 49 62 79 94 103 104 102 100 100 101 102 101 101 101 100 100 100 100 100 101 101 100 100 100 99 99 100 100 100 100 100 100 100 101 102 105 104 101 100 101 101 103
45 49 54 64 71 75 87 101 104 102 102 103 102 102 102 102 102 101 100 101 102 102 102 102 99 92 80 68 58 48 40 33 28 24 22 21 20 20 20 19 18 17 16 16 17 22 32 52 75 92 100 102 101 100 100 101 101 100 100 100 100 100 100 100 100 100 100 100 100 100 100 100 100 100 100 100 101 103 104 104 102 100 101 102 103 104
47 48 49 53 55 57 69 84 89 88 89 91 93 94 93 93 94 97 99 97 92 86 80 73 63 52 41 34 31 29 27 27 27 28 28 28 28 27 25 24 22 19 17 16 15 14 15 22 38 59 75 88 99 102 101 100 100 100 100 100 100 100 100 100 100 100 100 100 100 99 100 100 100 100 100 100 102 105 105 102 101 101 101 102 103 103
61 61 59 58 57 58 61 62 62 60 59 62 67 68 64 61 62 67 71 67 58 51 46 43 41 40 40 42 44 43 43 43 43 43 42 40 38 35 30 27 23 20 18 16 15 16 16 17 28 42 48 56 74 91 100 101 101 100 100 100 100 100 100 100 100 100 100 100 100 100 100 100 100 100 101 101 103 105 104 103 102 102 102 103 103 102
77 76 75 73 73 74 73 72 71 68 63 62 65 67 65 63 61 60 60 57 53 54 56 57 59 61 62 62 61 60 58 56 53 49 46 42 38 32 26 23 20 17 17 16 15 17 16 15 28 44 45 45 61 84 98 103 102 100 100 100 100 100 100 100 100 100 100 100 100 99 100 100 100 100 101 102 105 106 105 104 105 105 103 103 103 101
91 91 92 91 89 87 84 83 84 83 79 75 74 76 79 81 81 79 78 77 76 76 76 75 74 72 68 63 58 53 50 47 43 39 35 31 28 24 21 20 18 16 17 17 16 18 18 17 27 41 47 55 76 95 102 102 99 98 100 101 100 100 100 100 100 100 100 100 100 99 100 100 100 100 100 102 105 108 106 105 106 107 105 102 100 100
85 84 79 73 67 64 64 67 71 75 75 70 66 66 67 68 70 69 67 65 63 61 59 57 56 53 49 44 40 36 35 33 31 28 26 24 23 21 19 18 18 18 19 19 18 18 21 27 37 48 57 71 88 98 101 101 99 98 100 101 100 100 100 100 100 100 100 100 100 99 100 100 100 100 100 100 103 106 105 103 105 107 105 101 100 100
Wind_Speed
19 19 18 19 19 19 19 20 20 21 22 22 23 23 24 24 25 26 25 26 28 28 27 28 29 27 26 29 32 33 29 27 30 34 34 33 33 33 33 34 34 35 35 35 35 35 36 36 36 36 35 36 36 37 37 38 39 40 40 41 42 43 43 44 45 45 45 46 46 47 48 48 49 49 49 50 50 51 52 53 54 55 55 56 57 57
19 19 19 19 20 20 20 20 21 21 22 23 23 24 25 25 26 26 26 26 29 30 28 30 31 27 27 30 32 35 33 29 30 35 35 35 35 34 34 34 35 35 35 35 34 34 35 35 35 35 35 35 36 36 37 38 39 40 41 42 43 44 44 45 45 46 46 47 48 49 50 50 51 51 51 51 52 53 54 55 56 57 57 58 59 60
19 19 19 20 20 20 20 21 21 21 22 23 23 24 25 25 26 27 27 26 29 31 30 32 32 29 29 30 30 33 34 32 31 33 35 35 35 34 33 33 33 33 33 33 33 34 34 34 34 34 35 36 36 37 37 38 40 41 42 43 44 44 45 46 46 47 48 49 49 50 51 52 52 51 52 53 54 55 56 57 57 58 58 60 60 61
19 20 20 20 20 20 21 21 21 22 22 23 24 25 26 26 27 28 28 28 29 31 31 31 30 26 26 27 27 29 32 32 31 31 32 33 32 32 32 32 32 32 33 33 32 33 34 34 34 35 36 37 38 39 39 41 42 43 44 44 45 46 46 47 47 48 49 49 50 51 52 52 52 53 54 55 56 57 58 58 58 59 59 60 60 61
20 20 20 20 20 21 21 21 22 23 23 24 25 26 26 27 28 28 28 27 27 28 28 29 28 23 22 24 24 25 28 31 31 30 31 32 31 31 31 31 32 32 33 33 33 33 35 35 35 36 38 39 39 40 41 42 44 44 45 46 46 46 47 47 47 48 48 49 50 51 52 52 53 55 56 57 58 58 58 59 59 60 60 60 61 61
20 20 20 20 21 21 21 21 22 22 22 22 23 24 24 25 26 26 26 26 26 26 26 28 30 26 22 23 25 25 26 30 32 31 30 31 30 30 30 31 31 31 31 32 31 32 33 33 34 35 36 37 38 38 40 41 42 43 44 45 45 45 45 45 46 47 48 50 51 52 52 53 54 55 56 57 57 58 58 59 60 60 60 60 60 61
19 19 19 19 19 19 19 20 20 21 22 22 22 23 23 24 24 25 26 26 26 27 26 28 32 32 24 21 24 27 28 29 30 30 30 29 29 29 29 29 29 30 29 29 29 29 31 31 32 34 34 34 35 36 37 38 40 41 42 42 43 44 44 45 46 47 48 50 50 51 52 53 53 54 55 55 56 57 58 59 59 60 60 59 59 59
18 17 17 17 18 18 18 19 20 20 21 21 21 22 23 23 24 25 26 27 28 27 25 25 30 34 28 21 23 27 27 28 29 29 31 31 30 29 29 29 29 29 29 28 29 29 30 30 30 33 34 34 34 35 36 38 39 40 40 41 42 43 44 45 46 47 48 49 50 50 51 52 53 53 54 55 56 57 58 58 59 59 60 60 60 60
17 17 17 17 17 18 18 19 20 20 21 21 22 23 23 24 25 26 26 27 29 28 25 25 29 33 30 24 26 28 26 28 31 32 34 34 32 31 31 31 30 29 29 29 30 30 31 31 30 32 33 34 34 35 36 37 39 39 39 40 41 42 43 44 45 46 48 48 49 50 51 51 53 53 54 55 56 57 58 58 59 59 60 60 61 61
17 17 17 17 18 18 19 20 20 21 22 22 23 24 24 25 26 27 28 29 31 30 27 27 29 34 31 24 27 31 28 29 33 34 37 36 34 34 34 33 31 30 30 30 31 30 31 31 31 32 33 34 35 35 36 37 37 38 38 39 40 41 42 43 44 45 46 47 48 49 50 51 52 53 54 55 56 57 57 58 58 59 60 60 61 61
17 17 18 18 18 19 20 21 22 22 23 24 25 26 26 27 28 29 30 30 32 32 30 29 30 34 34 26 26 32 31 31 33 35 39 39 37 37 37 35 33 31 31 32 32 31 32 33 34 34 34 35 36 36 36 36 37 37 38 39 40 41 41 42 44 44 45 46 47 48 49 51 52 53 54 55 56 57 57 58 58 59 60 60 61 62
18 18 19 19 20 21 21 22 23 24 25 25 26 28 28 29 30 31 32 32 34 34 34 34 34 36 37 32 29 29 31 33 34 37 42 42 40 40 39 37 35 32 32 33 34 34 34 34 35 37 37 37 38 38 38 38 38 38 39 39 40 41 41 42 43 44 45 46 47 48 50 51 52 53 55 56 56 57 58 59 59 60 60 61 61 62
19 20 20 21 21 22 22 23 24 24 25 26 27 28 29 30 32 33 33 34 36 36 36 37 37 38 37 33 30 28 28 32 34 37 42 44 43 42 41 39 36 34 34 36 38 37 37 37 37 39 40 40 40 40 40 40 41 41 41 41 41 42 42 43 44 45 46 47 48 49 50 51 53 54 55 56 57 58 59 59 60 60 61 61 62 62
20 20 21 22 22 22 23 24 24 24 25 25 26 28 29 30 33 34 34 35 35 36 37 37 37 38 36 33 32 30 28 31 34 36 40 44 46 46 43 39 37 36 38 40 40 40 40 40 40 41 42 42 42 43 43 43 43 43 43 43 44 44 44 45 46 46 47 48 49 50 51 52 53 55 56 56 58 58 59 60 61 61 62 62 62 62
21 21 22 23 23 23 24 25 26 27 27 25 26 28 29 30 33 35 36 36 36 36 36 36 37 37 36 34 32 29 27 29 32 35 39 44 46 46 42 38 38 41 43 43 42 42 42 43 42 42 44 45 45 45 45 45 45 45 45 45 46 46 47 47 48 48 49 49 50 51 52 53 54 55 56 57 58 59 60 61 62 62 63 63 63 63
21 22 24 25 25 25 26 27 28 30 30 28 28 30 29 31 34 36 37 37 39 39 38 36 36 36 36 33 29 28 27 28 31 34 38 40 42 42 40 39 41 44 45 45 45 44 44 44 43 43 45 46 47 47 47 48 48 47 47 47 48 48 49 49 50 50 51 51 52 53 54 54 55 56 57 58 59 59 60 62 62 63 63 63 63 63
23 23 24 26 26 27 28 28 29 30 32 32 31 31 32 33 35 36 38 38 40 42 41 39 39 38 36 32 29 28 26 26 30 33 36 39 40 41 42 42 43 44 45 46 46 45 45 44 44 44 46 47 48 48 49 49 50 50 49 49 49 50 50 51 51 52 53 53 54 54 55 55 56 56 57 58 59 60 61 62 63 63 64 63 63 63
27 25 24 26 27 28 30 30 30 31 33 34 33 33 34 35 36 38 41 40 41 45 45 43 42 41 38 35 31 30 29 28 30 32 36 40 42 43 43 44 44 45 46 46 46 46 45 45 45 45 46 48 48 50 50 51 51 51 51 51 51 51 52 52 53 53 54 55 56 56 56 57 57 57 58 59 60 61 62 63 63 64 64 64 63 63
29 29 26 25 27 29 31 32 31 32 34 35 35 34 35 36 38 40 42 43 44 46 48 47 44 42 39 36 32 32 34 34 33 34 36 39 41 43 44 45 46 46 46 47 46 46 46 46 46 46 47 48 49 51 52 52 53 53 53 53 52 52 53 53 54 54 55 56 57 57 58 58 58 59 59 60 60 61 62 63 63 64 64 64 64 63
32 33 31 29 29 30 31 32 33 34 35 36 36 36 36 37 39 41 43 45 45 48 51 51 49 45 39 36 34 34 38 38 37 38 39 40 42 44 45 46 47 47 46 46 47 47 47 47 48 48 48 50 51 52 52 53 54 54 54 54 54 54 54 54 55 55 56 57 58 58 59 59 60 60 60 61 61 61 62 63 63 64 64 64 64 64
34 36 36 34 33 33 33 34 36 36 36 37 37 38 38 38 41 43 45 45 46 49 51 54 57 50 40 37 39 39 41 42 42 43 43 43 45 45 47 48 48 48 48 48 48 49 49 49 49 50 50 51 53 53 53 54 55 55 55 55 55 55 55 56 56 56 56 57 58 59 60 60 61 61 61 61 62 62 63 63 64 64 64 64 64 64
37 39 40 39 37 37 36 37 38 38 38 39 39 39 40 41 43 45 47 47 48 51 51 54 62 57 43 41 43 42 44 46 46 47 47 47 47 47 49 50 50 50 50 50 51 51 51 51 51 52 53 53 54 55 56 56 57 57 57 56 56 56 57 57 57 57 57 58 59 60 61 61 62 62 62 62 62 62 63 63 64 64 64 63 64 63
39 42 44 43 41 41 40 40 40 41 41 41 42 42 43 43 45 47 50 50 51 54 53 55 65 62 49 45 47 46 48 49 50 51 51 51 51 50 51 52 52 52 52 52 53 53 54 54 54 55 55 55 56 57 58 58 58 58 58 57 57 57 58 58 58 58 58 59 59 60 61 62 63 63 63 63 63 62 63 64 64 64 63 63 63 63
42 44 47 47 46 45 43 43 43 43 43 45 45 45 46 47 47 49 52 54 55 57 55 57 67 65 54 51 51 51 52 52 54 56 56 55 55 53 54 54 55 55 55 55 55 55 56 56 57 57 57 58 58 59 60 60 60 60 59 59 58 59 59 59 59 59 59 60 60 61 62 63 63 64 63 63 63 63 63 64 63 63 63 63 63 62
45 47 48 50 50 49 48 47 45 46 47 49 48 48 49 49 49 52 53 56 60 59 56 61 69 65 58 57 57 56 56 57 58 60 60 59 58 56 57 57 57 58 58 58 57 57 58 58 58 59 59 59 60 60 61 61 61 61 60 60 59 60 60 60 60 60 60 61 61 62 63 64 64 64 64 63 63 63 64 63 63 62 62 62 62 61
48 49 49 51 52 54 53 50 49 50 52 53 52 51 52 51 52 54 55 59 64 60 57 65 70 64 60 61 61 60 60 61 63 65 65 63 61 60 59 59 59 60 61 60 60 60 60 60 60 60 61 61 61 62 62 62 62 61 60 60 61 61 61 60 61 61 61 62 62 63 64 64 64 64 64 64 64 64 63 63 62 61 61 61 61 60
51 52 52 51 53 56 55 52 51 53 55 56 56 55 55 54 54 55 58 63 64 61 61 66 67 67 65 62 61 62 63 65 67 69 69 68 67 66 64 62 62 63 63 62 62 62 62 62 62 62 62 61 62 63 63 63 62 61 61 61 62 62 62 61 62 62 62 63 63 63 64 65 64 63 63 64 63 63 63 62 61 60 60 60 59 58
54 56 55 54 56 57 57 55 53 55 58 59 59 59 58 56 55 58 62 64 63 64 67 65 63 68 69 64 63 65 66 68 70 71 71 70 70 69 68 67 67 66 66 65 64 64 64 64 64 64 62 62 62 64 64 63 62 62 62 62 63 63 62 62 62 63 63 64 64 64 65 65 64 63 63 63 63 63 62 61 59 59 59 59 58 57
57 59 58 57 59 59 59 58 56 58 61 61 61 61 59 58 59 62 64 64 62 65 69 65 62 68 70 66 65 66 68 71 72 72 73 72 70 69 68 68 68 68 69 68 67 67 67 67 66 64 63 63 64 64 64 63 63 62 62 63 63 63 63 63 63 63 63 64 64 64 64 64 63 63 63 63 63 62 60 59 58 58 58 57 56 55
60 62 61 61 61 61 61 61 60 62 64 64 64 63 61 61 62 64 64 63 63 66 67 64 65 69 68 65 66 68 71 74 74 73 73 72 70 69 67 67 67 68 70 70 69 69 69 68 67 65 64 64 65 65 65 64 63 62 62 62 62 63 63 63 63 63 63 64 65 65 64 63 63 63 63 63 62 60 58 57 57 57 57 56 54 54
63 64 63 63 64 64 63 62 64 66 67 67 68 66 64 64 63 63 64 63 64 65 65 65 69 72 69 67 70 73 75 76 75 74 73 71 71 70 69 69 69 70 71 71 71 71 70 69 67 66 66 66 66 66 64 63 62 62 62 62 62 62 63 63 63 63 63 64 64 64 63 63 62 62 62 62 60 58 56 55 55 55 55 54 53 53
65 66 65 65 67 68 65 65 67 67 68 71 71 68 66 65 65 65 65 65 66 67 68 70 74 75 72 72 75 77 77 77 76 74 72 70 70 71 71 71 71 71 71 70 70 70 69 69 67 67 67 67 66 65 63 62 62 61 61 62 62 62 62 62 63 63 63 64 64 63 63 62 62 62 62 60 58 56 54 54 54 54 54 53 52 52
67 68 67 67 70 70 66 66 69 69 71 74 71 68 68 68 69 69 69 70 72 73 74 75 76 76 76 77 78 78 77 77 74 71 69 69 70 71 71 71 71 70 70 70 69 69 69 68 68 68 68 66 64 62 61 61 61 61 61 61 61 61 62 62 63 63 63 63 63 63 62 62 62 62 60 58 55 54 53 53 53 53 52 51 51 51
68 69 68 68 71 70 67 68 71 72 74 74 71 70 72 72 73 74 75 76 77 77 78 78 78 78 78 79 78 77 75 73 71 69 69 70 71 71 71 71 71 70 70 69 68 68 68 69 68 67 66 64 62 60 59 59 59 59 60 60 60 61 61 62 62 62 63 62 62 62 62 62 62 60 58 55 53 52 52 53 52 51 51 50 50 50
68 68 68 68 71 72 70 71 74 76 76 74 73 75 76 76 77 78 77 77 78 78 78 78 78 79 78 77 76 75 74 72 70 69 69 70 71 71 72 72 71 70 69 69 68 68 68 68 67 65 63 61 59 58 57 57 58 58 59 59 60 61 61 61 61 62 61 61 61 61 62 62 61 58 55 53 52 52 52 51 51 50 50 49 50 50
68 69 70 70 72 74 75 75 78 79 77 76 78 79 79 79 80 78 77 78 78 77 76 76 76 76 75 75 74 74 74 73 71 69 69 71 72 73 74 72 70 70 70 70 69 68 66 65 63 61 59 58 57 56 56 56 57 58 59 59 60 60 60 60 61 61 60 60 61 61 62 61 58 55 53 51 51 51 51 50 50 49 49 49 49 50
71 72 73 74 75 78 79 79 81 82 81 80 81 81 81 81 80 79 78 78 78 78 77 76 76 75 75 74 74 74 74 73 72 70 70 72 73 73 73 73 72 72 71 70 69 67 63 60 58 57 56 55 54 54 55 56 57 58 59 60 60 59 59 59 60 60 60 60 61 61 60 58 55 53 52 51 50 50 50 49 49 49 49 49 49 49
75 76 77 79 80 81 81 82 83 82 82 81 82 81 80 79 78 78 78 76 75 75 75 75 74 73 73 73 73 73 74 74 74 72 71 72 72 72 73 74 74 73 71 68 65 62 59 56 54 54 53 53 53 53 54 56 58 59 60 60 59 58 58 59 59 59 59 60 60 60 58 55 53 52 51 50 50 50 49 49 49 48 48 48 48 49
77 78 79 81 81 81 80 80 80 79 79 80 80 78 76 74 73 73 74 73 71 70 71 71 71 72 72 73 73 74 75 76 76 74 73 73 73 73 74 74 73 71 69 66 62 58 56 54 53 52 51 51 52 53 54 56 58 59 59 59 59 58 58 59 59 60 59 60 60 58 56 54 52 51 50 50 50 49 49 48 48 48 48 48 48 49
78 78 79 79 79 78 77 77 76 75 75 76 75 74 72 70 69 69 71 71 69 68 70 71 71 72 73 73 73 74 75 76 77 76 75 75 75 74 74 73 71 69 67 64 61 58 55 53 51 50 50 51 52 53 55 57 58 59 59 59 60 60 59 60 60 60 59 59 59 57 55 53 52 50 50 50 49 48 49 49 48 48 48 48 48 48
77 77 77 77 76 74 73 73 72 71 72 72 72 72 71 68 67 68 70 72 71 70 71 71 72 72 73 74 74 75 74 74 75 75 74 74 74 73 71 70 69 67 65 63 60 57 54 52 50 50 51 52 53 55 57 58 59 60 60 61 61 61 61 61 61 61 59 59 58 56 54 53 51 50 50 50 49 48 49 49 48 48 48 48 48 48
76 75 74 73 72 71 70 70 69 69 71 71 70 70 70 68 68 70 71 71 72 72 72 71 71 72 72 73 73 74 73 73 72 72 72 72 71 70 69 68 67 65 63 62 60 57 54 51 51 52 53 54 56 58 59 61 62 62 62 62 62 62 61 62 62 61 59 58 57 55 53 52 51 50 50 49 48 49 49 48 48 48 48 48 48 48
71 71 69 68 68 68 67 67 67 68 69 69 68 68 68 68 69 71 71 70 70 71 71 71 70 70 71 71 72 72 72 71 70 70 69 68 67 66 65 65 65 64 62 61 60 59 57 54 53 54 56 57 59 61 62 63 64 65 64 63 62 61 61 62 62 61 59 57 56 54 52 51 50 50 49 48 48 49 48 48 48 49 48 48 48 49
68 67 66 65 65 65 65 63 63 65 66 67 67 68 67 67 68 70 71 70 69 69 69 69 68 67 67 69 70 70 69 68 68 67 67 67 66 65 65 64 64 64 63 62 61 60 60 58 57 57 58 59 61 63 64 65 66 65 64 62 60 59 60 62 62 60 57 56 54 53 51 50 49 49 48 48 48 48 48 48 49 49 49 48 49 49
64 64 63 62 62 62 62 62 62 63 63 64 66 67 67 67 66 67 68 68 66 65 65 66 66 65 65 66 68 68 67 67 67 67 67 67 66 65 65 64 63 63 63 62 62 61 61 61 60 60 60 60 61 63 64 65 64 62 60 58 58 58 60 61 60 58 55 54 53 52 50 49 49 48 48 48 48 47 47 48 49 49 49 49 49 50
59 59 58 58 59 58 58 59 61 61 60 60 62 64 65 64 63 64 64 65 65 65 65 66 67 67 67 68 69 69 68 67 66 66 65 65 64 64 64 64 63 63 63 63 63 62 62 62 61 60 60 59 59 60 61 62 61 60 58 57 58 59 60 60 58 56 54 53 51 50 49 49 48 48 47 47 47 47 47 49 50 50 50 50 50 51
55 56 56 56 57 56 55 57 58 57 57 59 60 60 62 63 63 64 66 66 67 67 68 68 69 69 69 69 69 70 68 67 67 67 66 66 66 66 66 66 66 66 66 66 65 64 63 62 61 60 60 60 59 58 57 57 58 57 57 57 57 58 59 58 56 54 52 51 50 49 48 48 48 47 47 47 46 46 48 49 50 50 50 51 52 52
55 56 56 55 55 55 56 58 59 57 55 58 61 62 64 64 64 64 65 66 68 68 68 68 69 70 70 70 71 72 71 70 70 71 70 69 68 68 68 68 68 68 68 68 66 65 63 61 59 59 59 59 59 58 56 54 54 55 55 56 56 57 57 56 54 51 49 49 49 48 47 47 47 46 46 46 46 47 48 50 50 50 51 51 53 53
55 55 55 56 55 55 57 59 61 59 56 55 58 61 63 65 65 64 64 66 67 69 70 70 70 71 73 73 74 75 74 73 73 73 73 73 72 72 71 71 71 70 70 68 66 64 61 59 57 57 56 56 57 56 55 54 54 54 54 55 56 55 55 54 50 48 47 48 48 47 47 46 46 46 46 46 46 47 49 50 50 50 51 52 53 54
55 55 56 57 57 57 58 59 61 62 61 58 58 60 62 65 68 68 68 68 70 71 73 74 73 73 74 75 77 78 78 77 77 76 76 75 75 75 74 73 72 70 68 66 63 59 57 55 54 54 54 53 53 53 53 53 53 54 55 55 55 54 52 49 46 45 47 47 46 46 46 45 45 45 45 46 47 47 48 49 50 51 51 52 54 55
56 57 58 60 60 60 60 60 61 63 64 64 63 64 65 67 70 72 72 73 74 74 76 77 77 77 77 77 77 79 80 80 79 78 78 76 74 73 72 69 67 64 61 59 56 53 51 51 51 51 51 50 50 51 51 51 53 54 55 54 52 49 46 44 44 45 46 45 45 45 44 44 44 45 45 46 47 47 48 49 50 51 52 53 54 56
Wind_Direction
301 301 300 299 299 299 298 298 298 298 297 297 298 299 298 297 296 296 297 296 294 294 293 292 291 293 292 289 289 288 287 285 284 284 285 285 284 283 283 284 284 284 284 285 286 285 284 284 285 285 284 283 282 281 281 282 282 281 281 280 279 279 280 280 280 280 281 281 281 281 281 281 282 283 284 285 286 286 285 284 283 283 283 283 283 283
304 303 302 301 301 301 299 299 298 297 297 296 297 297 296 297 296 296 296 296 295 294 295 293 292 294 292 288 289 290 289 285 282 283 284 284 284 285 284 285 286 287 287 288 288 286 286 286 286 286 285 283 282 281 282 282 281 281 280 279 278 279 279 280 280 281 281 281 281 281 281 281 282 283 285 285 285 284 283 283 283 283 283 283 283 282
307 306 305 305 304 303 301 300 298 298 297 296 296 296 296 297 296 296 297 296 294 295 295 293 293 292 289 287 287 288 288 286 283 283 284 284 285 286 287 288 289 289 289 289 288 287 287 287 287 286 284 283 282 282 282 281 280 279 279 279 279 279 279 280 280 280 280 280 280 280 281 281 283 284 284 283 282 281 281 282 282 283 283 283 283 283
310 309 308 307 305 303 302 301 300 299 298 298 298 298 298 299 297 297 296 294 292 292 292 292 292 291 289 288 288 287 288 287 285 284 284 286 287 288 290 290 290 289 289 289 289 289 288 288 288 287 285 284 284 283 282 282 281 282 282 282 282 282 282 282 282 282 282 282 282 282 282 282 283 283 282 281 281 281 282 282 282 282 282 283 283 284
312 310 308 306 304 303 302 301 300 299 299 300 299 299 300 298 297 296 295 293 292 292 293 294 293 293 292 291 290 288 287 286 285 285 286 287 289 290 290 290 290 290 290 291 291 290 290 290 289 288 286 286 285 284 284 284 284 285 285 285 286 285 285 285 285 285 284 283 283 283 283 283 283 283 283 283 284 284 284 284 284 284 284 285 285 285
312 309 307 305 305 304 303 303 303 302 303 303 302 301 301 299 298 299 298 298 298 298 301 301 297 296 298 299 296 290 285 285 287 289 289 289 289 290 291 291 292 293 293 293 293 293 292 291 291 289 288 288 287 287 287 287 286 286 287 287 287 287 287 287 286 285 285 284 284 284 284 284 284 285 285 285 286 286 286 285 285 285 286 286 286 286
314 313 312 311 311 311 311 311 310 309 309 308 307 305 305 305 305 305 304 305 305 306 309 308 303 301 306 309 302 295 293 292 294 295 294 293 293 295 297 297 297 298 297 297 296 295 294 294 294 292 291 292 291 290 289 288 287 288 288 288 288 288 288 287 287 286 286 286 286 287 286 286 286 286 286 286 286 285 285 285 285 285 285 284 284 284
321 321 321 321 321 320 319 318 317 316 314 314 313 312 312 312 311 311 310 310 309 310 312 310 305 303 308 315 304 298 301 302 301 300 298 297 299 300 301 301 302 301 300 298 297 297 298 299 299 296 295 294 292 291 290 289 288 289 289 289 289 288 288 288 288 287 287 287 288 287 287 287 287 286 286 286 285 285 285 285 285 285 285 284 283 282
327 327 327 327 327 325 324 323 322 321 320 320 320 319 319 317 315 313 312 312 309 310 313 311 306 303 308 318 308 302 307 306 303 302 299 298 300 301 301 302 303 302 299 298 298 301 303 302 301 299 298 297 296 295 294 293 292 292 291 290 289 289 289 288 288 288 288 288 287 287 287 286 286 286 286 286 286 286 287 287 287 286 286 285 285 284
332 332 332 332 331 329 329 327 327 326 324 325 323 322 321 318 316 314 313 313 310 311 313 311 307 303 307 318 310 305 308 304 302 303 299 298 300 300 300 302 303 301 299 298 300 305 306 304 302 302 301 301 300 300 299 298 298 297 295 294 292 291 290 290 289 289 289 288 288 288 287 287 287 287 287 287 287 288 288 288 288 288 287 287 286 286
338 337 336 336 334 332 332 329 328 328 326 326 323 321 321 318 316 313 312 311 308 308 309 306 305 303 305 314 313 308 308 306 304 303 299 299 300 299 299 300 300 299 297 297 300 305 307 306 305 303 303 303 302 302 302 302 301 300 299 297 295 294 293 292 291 291 291 290 290 290 290 290 290 290 290 290 290 290 290 289 289 289 288 288 287 287
338 337 337 336 333 332 331 329 328 327 326 325 323 321 320 317 313 311 311 310 308 309 309 308 308 306 307 314 315 311 311 308 305 302 299 299 300 299 299 300 299 297 297 299 302 304 306 307 306 304 304 303 302 302 302 303 302 301 300 299 298 297 296 295 295 294 294 294 294 294 293 293 293 292 292 292 292 292 291 291 290 290 289 289 288 288
336 337 335 333 333 332 330 330 329 328 327 326 325 322 321 319 316 315 316 315 315 316 315 314 313 311 311 315 315 313 312 306 302 301 300 300 300 299 299 301 300 299 301 303 304 305 306 307 307 305 305 304 303 302 302 303 302 302 301 300 299 299 298 297 297 297 297 297 297 297 296 296 296 295 295 294 294 293 293 292 292 291 290 290 289 289
335 334 333 333 333 332 331 331 329 328 328 327 326 324 324 322 320 320 321 319 320 319 317 317 315 314 316 318 317 316 311 304 301 300 299 299 299 298 299 300 301 303 305 305 305 306 307 307 307 306 305 305 304 303 303 303 303 302 301 301 300 299 299 298 298 298 299 299 299 299 298 298 298 297 297 296 295 295 294 293 292 292 291 291 290 290
334 332 332 333 333 333 332 330 328 327 326 327 325 324 325 322 320 321 320 320 320 318 317 318 316 317 320 323 323 320 312 303 300 298 296 295 295 295 298 300 302 305 307 306 306 307 306 307 306 305 304 304 304 303 303 303 303 303 302 302 301 300 299 299 299 299 299 300 300 300 300 299 299 298 298 297 296 296 295 294 293 293 292 292 291 291
333 333 332 332 332 332 331 329 328 325 324 325 324 323 322 319 318 318 318 318 317 315 316 317 316 318 322 327 328 323 313 302 294 292 291 291 293 295 299 301 301 304 305 305 306 306 306 306 305 303 302 302 302 302 302 302 303 303 303 302 301 301 300 299 299 299 299 300 300 300 299 299 299 299 299 298 297 297 296 295 294 293 293 292 291 291
330 332 331 330 330 329 329 328 326 323 322 322 322 321 320 317 316 315 315 316 314 312 314 316 316 319 324 331 332 324 315 306 297 293 292 293 296 298 299 300 300 301 302 302 304 304 305 304 302 301 300 300 300 300 300 301 301 302 302 302 302 301 300 300 300 299 299 299 299 299 299 299 299 299 299 298 298 297 296 295 294 294 293 293 292 291
326 329 331 330 326 325 326 325 324 321 319 320 320 319 317 316 315 313 312 313 312 310 312 314 317 320 325 333 332 323 318 315 308 302 298 297 298 298 300 300 301 301 301 302 303 304 303 302 301 301 300 299 299 299 299 299 300 301 301 301 301 301 300 300 299 299 299 299 298 299 299 299 299 299 299 299 298 297 296 295 295 294 293 293 292 292
322 323 327 327 323 322 322 322 321 319 316 317 318 316 316 315 313 312 311 311 311 310 310 312 315 317 324 332 328 321 319 318 314 308 302 300 300 301 302 303 303 303 303 303 303 302 302 301 301 301 300 299 299 298 299 299 299 299 300 300 300 300 299 299 299 299 299 298 298 298 298 298 298 298 298 298 298 297 296 295 295 294 294 293 292 292
318 318 321 323 321 320 319 318 317 315 314 314 314 314 314 312 311 310 309 310 310 309 309 310 310 313 324 329 324 320 317 316 314 309 304 304 303 304 304 304 304 304 303 303 302 302 301 301 301 300 299 299 298 298 298 298 298 298 298 298 298 298 298 297 298 298 298 298 298 298 297 298 298 298 298 297 297 297 296 295 295 294 293 293 292 292
314 314 316 318 319 318 316 315 314 313 311 310 311 311 310 310 308 307 307 308 308 306 308 309 307 310 322 325 321 319 315 313 313 308 306 305 305 305 305 305 305 304 303 303 303 303 302 302 301 300 299 298 298 298 298 297 297 297 297 297 297 297 296 296 297 297 297 298 298 297 297 297 297 297 297 297 297 296 296 295 294 293 293 292 291 291
311 310 312 315 315 314 314 312 311 310 308 307 307 306 306 306 305 304 305 306 305 303 306 307 303 306 317 319 316 315 310 309 310 307 306 306 305 306 306 305 305 304 304 303 303 303 303 302 301 301 300 299 298 298 298 297 297 296 296 296 296 296 295 295 296 297 297 297 298 298 298 297 296 296 296 296 296 296 296 295 293 292 292 291 291 290
307 307 309 311 312 312 311 310 308 308 307 305 303 303 303 302 301 302 302 303 302 300 303 305 301 303 313 316 313 311 306 305 305 305 305 306 306 306 306 306 306 305 304 302 302 302 302 301 301 301 300 299 298 298 297 297 296 295 295 295 295 294 294 295 295 296 296 297 297 298 298 298 297 296 296 296 296 296 295 294 293 292 291 290 290 289
305 305 306 307 308 309 308 307 306 305 303 301 301 301 300 300 300 299 299 300 299 298 302 302 297 301 312 314 309 307 305 303 303 303 304 305 306 306 305 306 306 305 304 303 303 302 301 301 300 300 300 299 298 298 297 296 296 295 294 293 293 293 293 294 295 295 296 296 297 298 298 298 297 296 295 295 296 295 294 293 292 291 290 290 289 288
303 303 304 304 306 305 305 306 305 303 300 299 299 299 299 299 298 297 298 297 294 297 303 299 295 302 311 309 306 305 304 302 301 302 303 304 305 305 305 305 305 304 304 304 304 304 303 302 300 299 299 298 298 298 297 296 295 294 293 292 292 292 292 294 294 294 295 296 297 298 298 298 297 296 295 295 295 295 294 292 291 290 289 289 288 286
301 301 301 302 302 302 303 305 304 301 299 298 298 298 297 297 297 297 297 294 292 299 301 295 295 303 305 303 303 303 302 301 300 301 303 303 303 303 304 303 302 302 302 303 305 305 304 303 301 299 298 298 298 298 297 296 294 293 292 290 290 290 292 293 293 294 295 295 296 297 297 297 296 295 294 294 294 294 293 291 290 289 289 289 287 285
299 300 300 300 299 299 301 301 300 299 297 297 297 296 295 295 295 295 293 292 295 299 295 292 298 301 299 299 301 300 300 299 299 300 302 302 303 303 303 302 300 300 300 302 303 304 304 303 301 299 298 297 298 298 297 295 294 292 290 288 288 289 290 291 292 293 294 294 296 297 297 296 295 294 293 293 293 293 292 290 289 288 288 288 286 285
298 299 300 299 297 298 299 298 297 296 295 295 295 294 294 294 294 293 292 294 297 295 292 294 299 297 296 299 299 297 297 296 297 299 300 300 301 302 302 301 300 300 300 301 301 302 302 302 301 299 297 297 297 297 296 294 292 290 288 287 287 288 289 290 291 292 293 294 295 296 296 295 295 293 293 293 293 292 290 289 288 288 288 286 285 285
296 297 299 298 297 298 297 296 296 294 292 293 293 292 294 294 294 293 293 295 295 291 291 295 294 291 295 297 295 293 293 293 295 296 297 298 298 298 299 299 300 300 299 299 300 300 301 301 300 298 297 297 297 296 295 292 290 288 287 286 286 286 287 289 290 291 292 294 295 295 295 295 293 293 293 293 293 291 290 288 288 288 287 285 285 286
295 296 298 296 296 297 296 296 295 293 291 292 291 291 294 295 295 293 293 294 292 290 291 293 290 290 295 293 290 289 290 291 293 294 294 295 294 294 296 297 297 297 297 297 298 299 300 300 298 297 296 296 296 294 292 290 288 287 285 285 285 285 286 288 289 290 292 294 294 295 294 293 293 293 293 293 292 291 289 288 288 288 286 284 285 287
295 295 297 296 295 295 296 295 293 292 291 291 290 291 295 296 294 292 292 292 290 289 290 289 288 291 294 290 287 288 289 290 292 293 293 293 292 292 293 294 294 295 296 297 297 297 298 298 296 295 295 295 294 292 290 288 286 285 285 284 284 284 285 287 289 290 292 294 294 294 293 292 292 293 293 293 291 289 288 288 288 287 285 284 285 287
295 296 296 296 294 295 297 294 292 292 291 290 291 295 297 295 293 292 292 291 290 289 289 288 289 291 291 288 287 289 291 292 293 294 293 292 291 292 292 292 293 295 296 296 296 296 296 295 295 294 294 294 292 289 287 286 285 284 284 283 283 283 285 286 289 291 292 293 293 293 292 292 292 293 294 292 290 288 288 288 287 286 284 285 286 288
296 296 296 295 293 295 296 293 291 291 290 291 295 297 295 293 292 292 292 292 291 290 289 289 290 290 289 289 290 292 293 293 294 293 292 291 290 291 291 292 293 294 295 295 295 295 294 294 294 294 293 291 289 287 285 285 284 283 282 282 282 283 284 286 289 291 293 293 293 292 292 292 293 294 293 291 289 288 288 287 286 285 285 286 288 289
296 295 296 294 293 294 294 292 291 290 291 293 296 294 292 293 293 293 293 293 292 290 290 291 291 291 291 291 292 292 292 292 292 291 291 291 291 291 292 293 294 295 295 294 294 294 293 293 294 293 291 288 286 285 285 284 284 283 281 281 281 282 284 287 290 292 293 292 292 291 292 293 294 293 292 289 288 287 287 286 285 285 285 287 289 290
295 295 294 293 293 293 293 292 291 291 292 294 293 291 292 293 293 293 293 292 291 291 292 292 292 292 292 291 291 291 290 290 290 291 291 291 292 293 293 294 294 294 293 293 293 292 293 293 292 291 288 286 285 285 285 285 283 281 280 280 281 283 286 289 292 293 292 292 291 292 293 294 294 292 290 288 287 287 286 285 284 284 286 288 290 291
295 294 293 293 292 292 292 291 291 291 293 293 291 291 292 292 292 293 292 291 291 292 291 291 291 291 291 290 290 290 290 290 291 291 291 292 293 294 294 293 293 292 292 292 292 292 292 292 290 289 287 286 287 287 286 284 282 280 279 280 282 284 288 291 293 292 291 291 292 293 294 294 293 290 288 287 287 286 285 284 284 285 287 289 290 291
294 294 293 292 292 292 292 292 291 292 292 291 291 291 292 292 293 293 292 292 292 292 291 291 291 291 290 290 290 290 291 291 291 292 292 293 293 293 293 293 292 292 292 293 293 293 292 290 288 288 288 288 288 286 284 282 280 279 280 281 283 287 290 293 293 291 291 292 294 295 294 293 290 288 286 286 286 285 284 284 284 286 288 289 291 292
294 293 293 292 292 292 293 292 292 293 293 292 291 292 292 293 294 293 293 292 292 292 292 292 291 291 291 291 291 291 291 291 292 292 292 292 292 291 291 291 292 293 293 293 293 292 290 288 287 287 288 288 287 284 282 281 280 280 281 283 285 288 292 293 292 291 292 294 295 295 294 291 288 286 286 286 285 284 284 284 285 287 288 290 291 292
293 292 292 291 292 293 293 293 294 294 294 293 294 294 295 295 296 295 294 293 293 293 292 292 292 292 291 291 291 291 291 291 292 291 290 290 290 290 290 291 292 293 293 292 291 289 287 287 287 287 287 287 285 284 282 282 282 283 284 285 287 289 292 294 293 292 294 296 296 295 292 288 287 286 285 285 284 283 283 284 285 287 289 290 291 292
293 292 292 293 294 294 294 294 295 296 295 295 296 297 297 298 298 296 293 293 293 293 292 291 292 291 291 290 290 291 291 292 292 291 290 290 290 291 292 293 293 293 293 291 290 288 287 286 286 287 287 286 285 284 283 283 284 285 286 287 288 290 292 293 294 294 295 296 296 293 289 287 286 285 284 284 283 283 283 284 286 288 289 290 291 292
295 294 295 295 296 296 296 296 298 298 296 296 297 298 298 299 298 295 293 293 293 292 291 291 291 291 291 291 291 291 291 291 293 293 293 293 293 293 294 294 294 293 293 291 290 288 287 286 286 287 287 286 285 284 284 284 285 285 287 288 290 291 291 293 294 295 295 296 295 291 287 286 285 284 283 283 283 282 283 284 286 288 289 290 290 292
297 297 297 297 298 298 298 298 299 298 297 297 298 298 299 299 296 293 292 293 294 293 293 292 292 292 292 291 291 291 291 291 292 293 294 295 295 295 295 294 294 294 293 292 290 288 287 286 287 287 286 285 284 284 284 285 285 286 288 290 290 291 291 292 294 294 294 295 293 288 286 285 284 283 283 282 282 282 283 285 287 288 289 289 290 292
299 299 299 299 300 299 299 299 299 298 297 297 297 297 297 296 294 293 293 293 293 293 293 293 293 293 292 292 291 291 291 292 292 293 294 294 295 295 295 295 295 294 294 293 291 289 287 285 284 284 284 283 283 284 285 286 286 288 289 289 289 289 290 292 293 294 294 293 290 287 285 285 283 282 282 282 282 282 284 286 288 288 289 289 290 291
297 297 298 298 298 298 298 299 298 296 296 297 297 296 296 295 293 293 293 293 293 293 293 292 292 292 291 291 291 291 292 292 292 293 293 293 293 293 293 293 293 293 293 292 291 289 287 285 283 282 282 282 283 284 284 285 286 287 287 287 287 288 290 291 293 293 293 291 288 286 285 284 282 282 282 281 282 283 285 287 288 288 288 289 290 291
296 296 297 297 296 296 298 298 296 294 296 297 297 296 295 295 294 294 293 293 293 292 291 290 290 289 289 290 291 291 292 292 292 293 293 293 293 293 293 292 292 292 292 291 290 289 287 286 284 283 283 283 283 283 283 284 284 285 285 285 286 288 290 291 292 292 291 289 287 285 284 283 282 281 281 281 282 284 286 287 287 288 288 289 290 291
297 297 297 297 296 296 296 295 293 294 296 296 295 295 294 294 293 292 291 291 291 291 291 291 291 291 291 291 291 291 292 293 293 293 293 293 294 294 294 294 293 293 293 292 291 289 287 285 284 283 283 282 283 284 283 282 282 283 284 285 286 288 290 291 292 291 289 287 286 285 283 282 281 281 281 282 283 285 286 287 287 288 289 289 290 291
298 297 297 296 296 295 294 291 290 291 292 292 291 290 289 289 290 290 290 291 291 291 291 291 292 293 293 293 293 293 293 293 293 293 293 294 294 294 294 294 293 293 293 292 291 289 287 285 283 282 281 281 282 283 284 282 282 282 283 284 285 287 289 291 291 289 287 286 285 284 282 281 280 281 281 282 284 285 286 286 287 288 289 290 291 291
298 297 297 296 296 296 295 293 292 291 292 292 292 291 289 289 289 289 290 291 291 292 292 292 293 293 294 294 294 294 294 294 294 294 294 294 294 294 294 294 293 292 292 291 290 289 287 284 282 281 280 280 280 282 284 284 284 283 283 284 285 287 289 291 290 287 285 285 284 283 282 281 280 281 282 283 284 285 285 286 287 289 290 290 291 292
302 301 300 298 297 296 296 295 294 293 291 290 291 292 293 292 291 290 290 290 291 291 292 292 293 293 294 294 294 294 294 294 294 295 295 295 295 294 294 293 293 293 292 291 290 288 286 284 282 281 280 281 281 282 284 285 285 286 286 286 286 287 289 289 287 285 284 285 284 282 281 281 280 281 282 283 284 285 286 287 288 290 290 291 291 292
303 302 301 299 298 297 297 297 297 296 293 290 288 289 291 292 292 292 291 290 290 291 291 291 291 291 293 294 296 296 295 295 295 295 295 295 295 295 295 294 294 293 292 291 289 288 286 284 283 282 281 281 282 282 282 284 285 287 288 287 287 287 288 286 285 284 284 284 283 282 281 281 281 282 283 284 285 286 287 288 289 290 291 291 291 291
303 302 301 301 300 300 299 299 299 299 297 295 293 292 291 291 292 292 292 291 291 291 291 292 292 292 292 293 295 296 296 296 296 296 296 296 297 297 297 296 295 294 293 292 290 289 287 286 285 284 283 282 281 280 281 283 285 286 287 287 287 286 285 284 284 284 284 283 282 281 281 281 282 283 284 285 286 287 288 289 290 291 291 291 291 291